FW8396 Weather Reports


Display with metric or nautical units.
time (UTC)temp
F
wind
direction
speed
MPH
gust
MPH
rain 1hr
in
rain 24hr
in
rain mn
in
humidity
%
barometer
mb
20260502181528 74 321 4.0 11.0 0.00 2.48 0.00 48 1021.4
20260502163032 70 333 2.0 11.0 0.00 2.92 0.00 59 1021.9
20260502161527 69 11 3.0 9.0 0.00 2.92 0.00 60 1021.8
20260502151530 66 11 2.0 12.0 0.00 2.94 0.00 72 1021.7
20260502123030 54 304 1.0 5.0 0.00 3.04 0.00 90 1020.5
20260502121532 54 0 1.0 5.0 0.00 3.04 0.00 90 1020.2
20260502114544 53 0 0.0 2.0 0.00 3.05 0.00 89 1020.2
20260502113030 54 0 0.0 3.0 0.00 3.05 0.00 89 1020.0
20260502111528 54 313 1.0 6.0 0.00 3.05 0.00 89 1019.7
20260502110029 54 297 1.0 6.0 0.00 3.05 0.00 89 1019.5
20260502104527 54 304 1.0 6.0 0.00 3.14 0.00 89 1019.3
20260502103029 54 0 1.0 4.0 0.00 3.14 0.00 88 1019.2
20260502101530 54 0 0.0 4.0 0.00 3.14 0.00 88 1019.1
20260502091528 55 42 0.0 7.0 0.00 3.28 0.00 86 1018.2
20260502071530 56 0 0.0 8.0 0.00 3.66 0.00 89 1017.9
20260502070033 56 327 1.0 9.0 0.00 3.66 0.00 89 1017.8
20260502064543 56 30 1.0 9.0 0.00 3.68 0.00 90 1017.8
20260502063029 56 37 2.0 8.0 0.00 3.68 0.00 90 1017.5
20260502061530 56 43 2.0 11.0 0.00 3.68 0.00 90 1017.6
20260502060042 56 42 1.0 6.0 0.00 3.68 0.00 91 1017.3
20260502054531 56 315 1.0 8.0 0.00 3.91 0.00 91 1017.4
20260502053031 56 11 2.0 8.0 0.00 3.91 0.00 91 1017.4
20260502051534 56 24 3.0 12.0 0.00 3.91 0.00 92 1017.3
20260502050033 56 338 1.0 13.0 0.00 3.91 0.00 92 1017.2
20260502044532 56 292 2.0 9.0 0.00 3.91 3.91 92 1017.5
20260502043034 56 0 2.0 12.0 0.00 3.91 3.91 92 1017.5
20260502041537 56 310 2.0 10.0 0.00 3.91 3.91 92 1017.4
20260502040031 56 321 2.0 9.0 0.00 3.91 3.91 93 1017.4
20260502034532 56 11 3.0 11.0 0.01 3.91 3.91 93 1017.1
20260502033033 56 337 2.0 11.0 0.01 3.91 3.91 93 1017.1
20260502031532 56 268 3.0 12.0 0.02 3.91 3.91 93 1016.5
20260502030030 57 38 1.0 10.0 0.04 3.91 3.91 93 1015.9
20260502024533 57 321 2.0 9.0 0.04 3.90 3.90 93 1016.0
20260502023032 57 13 2.0 8.0 0.04 3.90 3.90 93 1015.6
20260502021530 58 9 2.0 10.0 0.06 3.89 3.89 93 1015.8
20260502020033 58 0 1.0 9.0 0.06 3.87 3.87 93 1015.7
20260502014530 58 355 2.0 10.0 0.06 3.86 3.86 93 1015.3
20260502013030 59 319 3.0 10.0 0.06 3.86 3.86 93 1014.7
20260502011528 59 0 2.0 10.0 0.05 3.83 3.83 93 1014.5
20260502010031 59 304 3.0 9.0 0.12 3.81 3.81 93 1014.5
20260502004536 59 56 2.0 9.0 0.17 3.80 3.80 93 1013.4
20260502003030 59 355 2.0 8.0 0.21 3.80 3.80 93 1013.2
20260502001530 59 11 3.0 9.0 0.24 3.78 3.78 93 1013.4
20260502000029 59 275 1.0 5.0 0.16 3.68 3.68 93 1013.6
20260501234531 59 11 5.0 14.0 0.11 3.63 3.63 93 1012.4
20260501233030 60 19 4.0 12.0 0.06 3.58 3.58 93 1012.3
20260501231530 60 98 2.0 11.0 0.03 3.54 3.54 93 1013.0
20260501230030 60 56 1.0 5.0 0.08 3.52 3.52 93 1012.7
20260501224527 60 30 2.0 10.0 0.16 3.52 3.52 93 1012.2
20260501223029 61 36 2.0 9.0 0.43 3.52 3.52 93 1012.2
20260501221530 61 35 1.0 8.0 0.48 3.51 3.51 94 1012.7
20260501220037 61 55 2.0 9.0 0.43 3.44 3.44 93 1012.8
20260501214530 61 119 2.0 10.0 0.39 3.36 3.36 93 1012.3
20260501213035 62 313 1.0 6.0 0.20 3.08 3.08 93 1013.0
20260501211533 62 355 1.0 9.0 0.38 3.03 3.03 93 1012.4
20260501210032 62 303 2.0 12.0 0.38 3.01 3.01 93 1011.3
20260501204542 62 347 3.0 10.0 0.42 2.97 2.97 93 1011.3
20260501203030 62 11 1.0 7.0 0.32 2.85 2.85 93 1012.2
20260501201530 62 308 2.0 9.0 0.15 2.65 2.65 93 1011.0
20260501200032 62 24 2.0 7.0 0.14 2.63 2.63 93 1011.1
20260501194529 62 12 1.0 12.0 0.55 2.55 2.55 93 1011.2
20260501193029 62 111 1.0 7.0 0.60 2.52 2.52 93 1011.0
20260501191536 63 360 1.0 11.0 0.92 2.50 2.50 93 1011.3
20260501190030 62 338 2.0 10.0 1.05 2.49 2.49 93 1010.7
20260501184542 62 168 2.0 6.0 0.57 1.97 1.97 93 1012.9
20260501183036 62 51 4.0 11.0 0.52 1.92 1.92 93 1010.2